sim
Sign-in with your pilot id or email,
or register
Callsign
Passwort

Schedule Details

Flight Number: OEF9168
Departure: Nairobi Jomo Kenyatta International Airport (HKJK) at 22:00
Arrival: Munich Airport (EDDM) at 05:35

Weather Information
Getting current METAR information for HKJK 190300Z VRB01KT 9999 BKN016 16/15 Q1022 NOSIG
Getting current METAR information for EDDM 190250Z 07003KT CAVOK 05/04 Q1020 NOSIG

Schedule Frequency

Route Map